Hinsdale, NY

3:37 AM EST on February 25, 2017 (GMT -0500)
Cattaraugus County-Olean

Weather History for KOLE - March, 2013

Change the Weather History Date:

Saturday, March 16, 2013

  Actual Average (KBFD) Record (KBFD)
Temperature  
Mean Temperature 24 °F -  
Max Temperature 26 °F 39 °F 67 °F (2012)
Min Temperature 21 °F 21 °F -4 °F (1992)
Degree Days  
Heating Degree Days 42    
Moisture  
Dew Point 19 °F    
Average Humidity 85    
Maximum Humidity 93    
Minimum Humidity 74    
Precipitation  
Precipitation 0.00 in - - ()
Sea Level Pressure  
Sea Level Pressure 29.75 in    
Wind  
Wind Speed 5 mph (NE)    
Max Wind Speed 10 mph    
Max Gust Speed 16 mph    
Visibility 8 miles    
Events Snow    
Averages and records for this station are not official NWS values.
T = Trace of Precipitation, MM = Missing Value Source: NWS Daily Summary

Daily Weather History Graph

Daily Weather History Graph

Search for Another Location

Airport or City:

Trip Planner

Search our weather history database for the weather conditions in past years. The results will help you decide how hot, cold, wet, or windy it might be!

Date:

Astronomy

Mar. 16, 2013 Rise Set
Actual Time 7:23 AM EDT 7:21 PM EDT
Civil Twilight 6:55 AM EDT 7:49 PM EDT
Nautical Twilight 6:22 AM EDT 8:22 PM EDT
Astronomical Twilight 5:49 AM EDT 8:55 PM EDT
Moon 9:46 AM EDT (3/16) No Moon Set
Length of Visible Light 12h 53m
Length of Day
11h 58m
Waxing Crescent, 23% of the Moon is Illuminated
Mar 16
Waxing Crescent
Mar 19
First Quarter
Mar 27
Full
Apr 3
Last Quarter
Apr 10
New

Hourly Weather History & Observations

Time (EDT) Temp. Windchill Dew Point Humidity Pressure Visibility Wind Dir Wind Speed Gust Speed Precip Events Conditions
12:15 AM 26.6 °F 20.0 °F 21.2 °F 80% 29.79 in 10.0 mi NW 5.8 mph - N/A   Mostly Cloudy
12:35 AM 26.6 °F 19.1 °F 21.2 °F 80% 29.78 in 10.0 mi WNW 6.9 mph - N/A   Scattered Clouds
12:55 AM 26.6 °F 21.2 °F 21.2 °F 80% 29.78 in 10.0 mi NNW 4.6 mph - N/A   Mostly Cloudy
1:15 AM 24.8 °F - 21.2 °F 86% 29.78 in 10.0 mi Calm Calm - N/A   Overcast
1:35 AM 24.8 °F - 21.2 °F 86% 29.78 in 10.0 mi Calm Calm - N/A   Overcast
1:55 AM 24.8 °F - 21.2 °F 86% 29.78 in 10.0 mi Calm Calm - N/A   Overcast
2:15 AM 23.0 °F 18.4 °F 19.4 °F 86% 29.78 in 10.0 mi NNW 3.5 mph - N/A   Overcast
2:35 AM 23.0 °F - 19.4 °F 86% 29.78 in 10.0 mi Calm Calm - N/A   Overcast
2:55 AM 23.0 °F 15.8 °F 19.4 °F 86% 29.78 in 10.0 mi North 5.8 mph - N/A   Overcast
3:15 AM 23.0 °F - 19.4 °F 86% 29.77 in 10.0 mi Calm Calm - N/A   Overcast
3:35 AM 23.0 °F 18.4 °F 19.4 °F 86% 29.75 in 10.0 mi NE 3.5 mph - N/A   Overcast
3:55 AM 23.0 °F - 19.4 °F 86% 29.75 in 10.0 mi Calm Calm - N/A   Overcast
4:15 AM 23.0 °F 18.4 °F 17.6 °F 80% 29.74 in 10.0 mi ENE 3.5 mph - N/A   Overcast
4:35 AM 21.2 °F 16.4 °F 17.6 °F 86% 29.74 in 10.0 mi NE 3.5 mph - N/A   Overcast
4:55 AM 21.2 °F 16.4 °F 17.6 °F 86% 29.73 in 10.0 mi ENE 3.5 mph - N/A   Overcast
5:35 AM 21.2 °F 14.9 °F 19.4 °F 93% 29.73 in 10.0 mi East 4.6 mph - N/A   Overcast
5:55 AM 21.2 °F 14.9 °F 19.4 °F 93% 29.74 in 10.0 mi East 4.6 mph - N/A   Overcast
6:15 AM 21.2 °F 13.6 °F 19.4 °F 93% 29.74 in 5.0 mi East 5.8 mph - N/A Snow Light Snow
6:35 AM 21.2 °F 13.6 °F 19.4 °F 93% 29.73 in 5.0 mi East 5.8 mph - N/A Snow Light Snow
6:55 AM 21.2 °F 13.6 °F 19.4 °F 93% 29.73 in 5.0 mi East 5.8 mph - N/A Snow Light Snow
7:15 AM 21.2 °F 13.6 °F 19.4 °F 93% 29.74 in 4.0 mi ENE 5.8 mph - N/A Snow Light Snow
7:35 AM 21.2 °F 12.6 °F 19.4 °F 93% 29.74 in 1.2 mi East 6.9 mph - N/A Snow Light Snow
7:55 AM 21.2 °F 10.9 °F 17.6 °F 86% 29.74 in 1.5 mi East 9.2 mph - N/A Snow Light Snow
8:15 AM 21.2 °F 12.6 °F 17.6 °F 86% 29.74 in 5.0 mi East 6.9 mph - N/A Snow Light Snow
8:35 AM 21.2 °F 13.6 °F 17.6 °F 86% 29.74 in 4.0 mi East 5.8 mph - N/A Snow Light Snow
8:55 AM 21.2 °F 13.6 °F 17.6 °F 86% 29.74 in 7.0 mi East 5.8 mph - N/A Snow Light Snow
9:15 AM 21.2 °F 14.9 °F 17.6 °F 86% 29.73 in 10.0 mi East 4.6 mph - N/A   Overcast
9:35 AM 21.2 °F 13.6 °F 17.6 °F 86% 29.72 in 7.0 mi ESE 5.8 mph - N/A Snow Light Snow
9:55 AM 23.0 °F 17.0 °F 17.6 °F 80% 29.72 in 7.0 mi East 4.6 mph - N/A Snow Light Snow
10:15 AM 23.0 °F 15.8 °F 17.6 °F 80% 29.72 in 4.0 mi East 5.8 mph - N/A Snow Light Snow
10:35 AM 23.0 °F 15.8 °F 19.4 °F 86% 29.71 in 7.0 mi East 5.8 mph - N/A Snow Light Snow
10:55 AM 23.0 °F 17.0 °F 19.4 °F 86% 29.72 in 10.0 mi ENE 4.6 mph - N/A   Overcast
11:15 AM 23.0 °F 15.8 °F 19.4 °F 86% 29.70 in 5.0 mi ENE 5.8 mph - N/A Snow Light Snow
11:35 AM 23.0 °F 14.7 °F 19.4 °F 86% 29.70 in 4.0 mi ENE 6.9 mph - N/A Snow Light Snow
11:55 AM 23.0 °F 15.8 °F 19.4 °F 86% 29.71 in 1.5 mi ENE 5.8 mph - N/A Snow Light Snow
12:15 PM 24.8 °F 16.9 °F 19.4 °F 80% 29.70 in 4.0 mi East 6.9 mph - N/A Snow Light Snow
12:35 PM 24.8 °F 16.1 °F 19.4 °F 80% 29.70 in 5.0 mi East 8.1 mph - N/A Snow Light Snow
12:55 PM 26.6 °F 19.1 °F 19.4 °F 74% 29.69 in 7.0 mi East 6.9 mph - N/A   Overcast
1:15 PM 26.6 °F 18.2 °F 19.4 °F 74% 29.69 in 10.0 mi ENE 8.1 mph - N/A   Overcast
1:35 PM 26.6 °F 19.1 °F 19.4 °F 74% 29.69 in 10.0 mi ENE 6.9 mph - N/A   Overcast
1:55 PM 26.6 °F 19.1 °F 19.4 °F 74% 29.69 in 7.0 mi ENE 6.9 mph - N/A   Overcast
2:15 PM 26.6 °F 20.0 °F 21.2 °F 80% 29.68 in 2.0 mi ENE 5.8 mph - N/A Snow Light Snow
2:35 PM 24.8 °F 16.1 °F 21.2 °F 86% 29.69 in 3.0 mi ENE 8.1 mph - N/A Snow Light Snow
2:55 PM 26.6 °F 18.2 °F 21.2 °F 80% 29.68 in 4.0 mi NE 8.1 mph - N/A   Overcast
3:15 PM 26.6 °F 20.0 °F 21.2 °F 80% 29.69 in 10.0 mi NNE 5.8 mph - N/A   Overcast
3:35 PM 24.8 °F 16.1 °F 21.2 °F 86% 29.69 in 10.0 mi NNE 8.1 mph - N/A   Overcast
3:55 PM 24.8 °F 14.6 °F 19.4 °F 80% 29.70 in 10.0 mi NE 10.4 mph 16.1 mph N/A   Overcast
4:15 PM 24.8 °F 16.1 °F 19.4 °F 80% 29.71 in 10.0 mi NE 8.1 mph - N/A   Overcast
4:35 PM 23.0 °F 13.9 °F 19.4 °F 86% 29.72 in 10.0 mi NE 8.1 mph - N/A   Overcast
4:55 PM 23.0 °F 15.8 °F 19.4 °F 86% 29.72 in 10.0 mi NE 5.8 mph - N/A   Overcast
5:15 PM 23.0 °F 17.0 °F 19.4 °F 86% 29.74 in 10.0 mi NNE 4.6 mph - N/A   Overcast
5:35 PM 23.0 °F 18.4 °F 19.4 °F 86% 29.75 in 10.0 mi NNE 3.5 mph - N/A   Overcast
5:55 PM 23.0 °F 17.0 °F 19.4 °F 86% 29.75 in 10.0 mi NE 4.6 mph - N/A   Overcast
6:15 PM 23.0 °F 17.0 °F 19.4 °F 86% 29.75 in 10.0 mi NNE 4.6 mph - N/A   Overcast
6:55 PM 23.0 °F - 19.4 °F 86% 29.77 in 10.0 mi Calm Calm - N/A   Overcast
7:15 PM 23.0 °F 18.4 °F 19.4 °F 86% 29.77 in 10.0 mi NNE 3.5 mph - N/A   Overcast
7:35 PM 23.0 °F 18.4 °F 19.4 °F 86% 29.78 in 10.0 mi NNE 3.5 mph - N/A   Overcast
7:55 PM 21.2 °F 16.4 °F 17.6 °F 86% 29.80 in 10.0 mi NNE 3.5 mph - N/A   Overcast
8:15 PM 21.2 °F 16.4 °F 19.4 °F 93% 29.82 in 10.0 mi NNE 3.5 mph - N/A   Overcast
8:35 PM 23.0 °F 17.0 °F 19.4 °F 86% 29.82 in 10.0 mi NE 4.6 mph - N/A   Overcast
8:55 PM 21.2 °F 14.9 °F 19.4 °F 93% 29.83 in 10.0 mi NE 4.6 mph - N/A   Overcast
9:15 PM 21.2 °F 14.9 °F 19.4 °F 93% 29.84 in 10.0 mi NE 4.6 mph - N/A   Overcast
9:35 PM 21.2 °F - 19.4 °F 93% 29.85 in 10.0 mi Calm Calm - N/A   Overcast
9:55 PM 23.0 °F - 19.4 °F 86% 29.85 in 10.0 mi Calm Calm - N/A   Overcast
10:15 PM 23.0 °F - 19.4 °F 86% 29.85 in 10.0 mi Calm Calm - N/A   Overcast
10:35 PM 23.0 °F - 19.4 °F 86% 29.86 in 10.0 mi Calm Calm - N/A   Overcast
10:55 PM 23.0 °F - 19.4 °F 86% 29.86 in 10.0 mi Calm Calm - N/A   Overcast
11:15 PM 23.0 °F - 19.4 °F 86% 29.87 in 10.0 mi Calm Calm - N/A   Overcast
11:35 PM 21.2 °F 14.9 °F 17.6 °F 86% 29.87 in 10.0 mi WNW 4.6 mph - N/A   Overcast
11:55 PM 21.2 °F 14.9 °F 19.4 °F 93% 29.86 in 10.0 mi NW 4.6 mph - N/A   Overcast